Home   Weather   Hildesheim   Past weeks

Flag for Germany Past Weather in Hildesheim, Lower Saxony, Germany — Yesterday and Last 2 Weeks

Now
72 °F

Sunny.


Feels Like: 77 °F
Forecast: 51 / 64 °F
Wind: 12 mph from West

Location: Braunschweig Wolfsburg

Current Time: Sep 29, 2016 at 6:58:16 PM

Latest Report: Sep 29, 2016 at 6:20 PM


Visibility: 10 mi

Pressure: 29.86 "Hg

Humidity: 47%

Dew Point: 50 °F

Location of HildesheimLocation

Past Weather in Hildesheim — Graph

°F

Hildesheim Temperature Yesterday

Maximum temperature yesterday: 68 °F (at 1:20 PM)
Minimum temperature yesterday: 59 °F (at 6:20 AM)
Average temperature yesterday: 65 °F

High & Low Weather Summary for the Past Weeks

 TemperatureHumidityPressure
High84 °F (Sep 14, 5:20 PM)100% (Sep 17, 8:50 AM)30.30 "Hg (Sep 17, 8:50 AM)
Low46 °F (Sep 22, 7:50 AM)29% (Sep 14, 5:50 PM)29.86 "Hg (Sep 29, 3:50 PM)
Average64 °F67%30.10 "Hg
* Reported Sep 14 5:20 PM — Sep 29 5:20 PM, Hildesheim, Weather by CustomWeather, © 2016

Note: Actual official high and low records may vary slightly from our data, if they occured in-between our weather recording intervals... More about our weather records

Advertising

Hildesheim Weather History for the Previous 24 Hours

Scroll right to see more
 ConditionsComfort  
Time TempWeatherWind HumidityBarometerVisibility
5:20 PM
Thu, Sep 29
75 °FSunny.13 mph50%29.86 "Hg10 mi
4:50 PM73 °FSunny.16 mph50%29.86 "Hg10 mi
4:20 PM73 °FSunny.12 mph53%29.86 "Hg10 mi
3:50 PM73 °FPassing clouds.14 mph50%29.86 "HgN/A
3:20 PM73 °FSunny.12 mph47%29.89 "Hg10 mi
2:50 PM72 °FPassing clouds.15 mph50%29.89 "HgN/A
2:20 PM72 °FPassing clouds.16 mph50%29.89 "HgN/A
1:50 PM70 °FPassing clouds.14 mph53%29.92 "HgN/A
1:20 PM70 °FSunny.16 mph57%29.95 "Hg10 mi
12:50 PM70 °FSunny.18 mph57%29.95 "Hg10 mi
12:20 PM68 °FSunny.20 mph60%29.95 "Hg10 mi
11:50 AM68 °FSunny.18 mph60%29.98 "Hg10 mi
11:20 AM68 °FSunny.17 mph60%29.98 "Hg10 mi
10:50 AM66 °FSunny.13 mph64%30.01 "Hg10 mi
10:20 AM66 °FSunny.12 mph64%30.01 "Hg10 mi
9:50 AM64 °FSunny.15 mph68%30.04 "Hg10 mi
9:20 AM64 °FSunny.15 mph64%30.04 "Hg10 mi
8:50 AM63 °FSunny.15 mph68%30.04 "Hg10 mi
8:20 AM64 °FSunny.10 mph64%30.04 "Hg10 mi
7:50 AM64 °FPartly sunny.12 mph64%30.04 "HgN/A
7:20 AM64 °FPartly sunny.12 mph64%30.04 "HgN/A
6:50 AM63 °FPassing clouds.9 mph73%30.07 "HgN/A
9:50 PM
Wed, Sep 28
66 °FPassing clouds.13 mph60%30.15 "HgN/A
9:20 PM66 °FClear.13 mph60%30.15 "Hg10 mi
8:50 PM66 °FClear.14 mph60%30.15 "Hg10 mi
8:20 PM66 °FClear.13 mph60%30.15 "Hg10 mi
7:50 PM66 °FClear.13 mph60%30.15 "Hg10 mi
7:20 PM66 °FClear.12 mph60%30.15 "Hg10 mi
6:50 PM66 °FSunny.14 mph60%30.15 "Hg10 mi
6:20 PM68 °FSunny.16 mph56%30.15 "Hg10 mi
Weather by CustomWeather, © 2016

See weather overviewHow to use our weather pages